DECAYED

STARLINK-1058, 44763 (Decayed)

Orbit data source: Space-Track

STARLINK-1058, 44763 was a payload satellite owned by SpaceX/Seattle (US) in LEO that was launched on Mon, 11 Nov 2019 UTC via an FALCON 9 launch vehicle from the Air Force Eastern Test Range (AFETR). Payload-class satellites include a variety of spacecraft equipped with specific instruments for various scientific and technological missions. These include communications satellites like Starlink; space stations such as the ISS; scientific satellites like the Hubble; Earth observation satellites from companies like Planet Labs, Umbra, and HawkEye 360; GPS; miniature CubeSats for education and research; and military/defense satellites.

Not visible in the next 10 days
Identifier
44763, 2019-074BC
Orbit
Decayed
Country
Flag of USUS
Related business
Manufacturer
SpaceX/Seattle
Mission
Decayed Commercial Communications
Bus & Motor
STARLINK, Unknown motor
Mass
260 kg wet, ~248 kg dry
Launch date (UTC)
2019-11-11 (6 years ago)
Launch vehicle
FALCON 9
Launch site
Air Force Eastern Test Range (AFETR)
Object type
Payload
Rocket body
Debris
Shape & HBR
Box + 1 Pan, 10.1 m
Radar Cross Section
13.562 m², Large (>1 m²)

Expand to show TLE details & history
Last TLE update: 6 months ago

TLE from 6 months ago
0 STARLINK-1058
1 44763U 19074BC  25094.42257267  .22289407  12548-4  62136-3 0  9999
2 44763  53.0213 244.7889 0007421 291.3365 116.4860 16.44988688298136
Epoch: 2025-04-04T10:08Z
TLE epoch observation values (Epoch: 2025-04-04T10:08:30.278Z)
Latitude
36.4742°
Longitude
-66.71544°
Altitude
157.568 km
Speed
7.815 km/s
True Right ascension
18h 33m 34s
True Declination
36° 17' 41"
Sunlit
Object was in daylight at epoch
Visualization orbit readout
Latitude
Unknown
Longitude
Unknown
Altitude
Unknown
Speed
Unknown
Apparent Right ascension
Unknown
Apparent Declination
Unknown
Sunlit
N/A
Visualization observer readout
Local Sidereal Time
22:16:59
Azimuth
Unknown
Elevation
Unknown
Doppler factor
Unknown
Orbital elements
Apogee altitude
157.704 km
Perigee altitude
148.011 km
Semi-major axis
6,530.995 km
Eccentricity
0.00074
Inclination
53.0213°
RAAN
244.7889°
Arg. of periapsis
291.3365°
True anomaly
116.56208°
Mean anomaly
116.486°
Eccentric anomaly
116.52404°
Mean motion
4.1122 °/min
Orbital period
87.54 mins
BSTAR
0.00062136
Loading maneuver chart data...
Computing Atmospheric mass density...
Loading historical data...
Loading historical data...
Loading historical data...
Loading historical data...
Loading historical data...
Loading historical data...
Loading historical data...

Documentation

Showing up to 5 results
|